"Pseudo-MPEC" for C2TA3N2

Created 2020 May 26 11:07:04 UT using Find_Orb

Click here for an explanation of pseudo-MPECs

 
 Astrometry: 
     C2TA3N2  C2020 05 18.26968 13 34 05.27 +28 26 53.2    ~5I7M 22.4 GVNEOCPG96
     C2TA3N2  C2020 05 18.27481 13 34 04.94 +28 26 42.1    ~5I7M 22.1 GVNEOCPG96
     C2TA3N2  C2020 05 18.27994 13 34 04.58 +28 26 30.8    ~5I7M 21.9 GVNEOCPG96
     C2TA3N2  C2020 05 18.28507 13 34 04.17 +28 26 20.9    ~5I7M 22.7 GVNEOCPG96
     C2TA3N2  C2020 05 18.36580 13 33 59.00 +28 23 26.9    ~5I9b 21.8 GVNEOCPV06
     C2TA3N2  C2020 05 18.37213 13 33 58.57 +28 23 13.2    ~5I9b 22.1 GVNEOCPV06
     C2TA3N2  C2020 05 18.37847 13 33 58.19 +28 22 59.8    ~5I9b 21.9 GVNEOCPV06
     C2TA3N2  C2020 05 18.38481 13 33 57.81 +28 22 46.1    ~5I9b 22.6 GVNEOCPV06

Station data:
(G96) Mt. Lemmon Survey  (N32.442754 W110.788720)  US/Arizona.  Observers T.
   A. Pruyne, B. M. Africano, E. J. Christensen, G. A. Farneth, D. C. Fuls,
   A. R. Gibbs, A. D. Grauer, H. Gröller, J. A. Johnson, R. A. Kowalski, S.
   M. Larson, G. J. Leonard, D. Rankin, R. L. Seaman, F. C. Shelly. 1.5-m
   reflector + 10K CCD.
(V06) Catalina Sky Survey-Kuiper  (N32.416847 W110.732550)  US/Arizona.
   Observers T. A. Pruyne, B. M. Africano, E. J. Christensen, G. A. Farneth,
   D. C. Fuls, A. R. Gibbs, A. D. Grauer, H. Gröller, J. A. Johnson, R. A.
   Kowalski, S. M. Larson, G. J. Leonard, D. Rankin, R. L. Seaman, F. C.
   Shelly. 1.55-m reflector + CCD.

Orbital elements:  C2TA3N2
   Perihelion 2020 Jul 6.300584 +/- 84.7 TT =  7:12:50 (JD 2459036.800584)
Epoch 2020 May 18.0 TT = JDT 2458987.5   Earth MOID: 0.2592   AutoNEOCP
M 347.04792762 +/- 70               (J2000 ecliptic)
n   0.26271641 +/- 0.288            Peri.  182.89709 +/- 90
a   2.41441126 +/- 1.76             Node    77.47926 +/- 56
e   0.4723109 +/- 0.202             Incl.   22.17122 +/- 11
P   3.75                   H 21.7   G  0.15   U 11.9  SR
q 1.27405845 +/- 0.482    Q 3.55476406 +/- 1.64
From 8 observations 2020 May 18 (2.8 hr); mean residual 0".33
Residuals in arcseconds: 
200518 G96  .26+  .06+    200518 G96  .83-  .58+    200518 V06  .00   .12+    
200518 G96  .39+  .11-    200518 V06  .09+  .13-    200518 V06  .25+  .11+    
200518 G96  .11+  .47-    200518 V06  .28-  .17-    

Ephemerides (geocentric):
Date (UTC) HH   RA              Dec         delta   r     elong  mag " sig PA
---- -- -- --  -------------   -----------  ------ ------ -----  --- ---- ---
2020 05 26 11  13 27 31.753   +23 02 01.05  .50952 1.3427 120.0 22.5 2853 110
2020 05 26 12  13 27 30.272   +23 00 11.36  .50945 1.3425 120.0 22.5 2878 110
2020 05 26 13  13 27 28.797   +22 58 21.58  .50939 1.3424 120.0 22.5 2904 110
2020 05 26 14  13 27 27.328   +22 56 31.69  .50932 1.3423 120.0 22.5 2930 110
2020 05 26 15  13 27 25.864   +22 54 41.70  .50926 1.3421 120.0 22.5 2956 110
2020 05 26 16  13 27 24.406   +22 52 51.62  .50919 1.3420 119.9 22.5 2982 110
2020 05 26 17  13 27 22.953   +22 51 01.44  .50913 1.3419 119.9 22.5 3008 110
2020 05 26 18  13 27 21.506   +22 49 11.15  .50906 1.3417 119.9 22.5 3034 109
2020 05 26 19  13 27 20.065   +22 47 20.77  .50900 1.3416 119.9 22.5 3061 109
2020 05 26 20  13 27 18.629   +22 45 30.29  .50893 1.3415 119.9 22.5 3087 109
2020 05 26 21  13 27 17.198   +22 43 39.71  .50887 1.3413 119.9 22.5 3114 109
2020 05 26 22  13 27 15.773   +22 41 49.03  .50880 1.3412 119.9 22.5 3141 109
2020 05 26 23  13 27 14.354   +22 39 58.25  .50874 1.3411 119.8 22.5 3168 109
2020 05 27 00  13 27 12.940   +22 38 07.38  .50868 1.3409 119.8 22.5 3194 109
2020 05 27 01  13 27 11.532   +22 36 16.41  .50861 1.3408 119.8 22.5 3222 109
2020 05 27 02  13 27 10.130   +22 34 25.34  .50855 1.3407 119.8 22.5 3249 109
2020 05 27 03  13 27 08.733   +22 32 34.17  .50849 1.3405 119.8 22.5 3276 109
2020 05 27 04  13 27 07.341   +22 30 42.90  .50842 1.3404 119.8 22.5 3303 109
2020 05 27 05  13 27 05.955   +22 28 51.53  .50836 1.3403 119.7 22.5 3331 109
2020 05 27 06  13 27 04.575   +22 27 00.07  .50830 1.3401 119.7 22.5 3359 109
2020 05 27 07  13 27 03.200   +22 25 08.51  .50823 1.3400 119.7 22.5 3386 109
2020 05 27 08  13 27 01.831   +22 23 16.85  .50817 1.3399 119.7 22.5 3414 109
2020 05 27 09  13 27 00.468   +22 21 25.10  .50811 1.3397 119.7 22.5 3442 108
2020 05 27 10  13 26 59.110   +22 19 33.25  .50805 1.3396 119.7 22.5 3470 108
2020 05 27 11  13 26 57.758   +22 17 41.30  .50799 1.3395 119.6 22.5 3499 108
2020 05 27 12  13 26 56.411   +22 15 49.25  .50792 1.3393 119.6 22.5 3527 108
2020 05 27 13  13 26 55.070   +22 13 57.11  .50786 1.3392 119.6 22.5 3556 108
2020 05 27 14  13 26 53.734   +22 12 04.87  .50780 1.3391 119.6 22.5 3584 108
2020 05 27 15  13 26 52.404   +22 10 12.53  .50774 1.3390 119.6 22.5 3613 108
2020 05 27 16  13 26 51.080   +22 08 20.10  .50768 1.3388 119.6 22.5 3642 108
2020 05 27 17  13 26 49.761   +22 06 27.57  .50762 1.3387 119.6 22.5 3671 108
2020 05 27 18  13 26 48.448   +22 04 34.95  .50756 1.3386 119.5 22.5 3700 108
2020 05 27 19  13 26 47.141   +22 02 42.22  .50750 1.3384 119.5 22.5 3729 108
2020 05 27 20  13 26 45.839   +22 00 49.41  .50744 1.3383 119.5 22.5 3758 108
2020 05 27 21  13 26 44.543   +21 58 56.49  .50738 1.3382 119.5 22.5 3788 108
2020 05 27 22  13 26 43.252   +21 57 03.49  .50732 1.3380 119.5 22.5 3817 108
2020 05 27 23  13 26 41.967   +21 55 10.38  .50726 1.3379 119.5 22.5 3847 108
2020 05 28 00  13 26 40.687   +21 53 17.18  .50720 1.3378 119.4 22.5 3877 108
2020 05 28 01  13 26 39.414   +21 51 23.89  .50714 1.3377 119.4 22.5 3907 108
2020 05 28 02  13 26 38.145   +21 49 30.50  .50708 1.3375 119.4 22.5 3937 107
2020 05 28 03  13 26 36.883   +21 47 37.01  .50702 1.3374 119.4 22.5 3967 107
2020 05 28 04  13 26 35.626   +21 45 43.43  .50696 1.3373 119.4 22.5 3997 107
2020 05 28 05  13 26 34.374   +21 43 49.75  .50691 1.3371 119.4 22.5 4028 107
2020 05 28 06  13 26 33.129   +21 41 55.98  .50685 1.3370 119.4 22.5 4058 107
2020 05 28 07  13 26 31.889   +21 40 02.12  .50679 1.3369 119.3 22.5 4089 107
2020 05 28 08  13 26 30.654   +21 38 08.16  .50673 1.3368 119.3 22.5 4119 107
2020 05 28 09  13 26 29.425   +21 36 14.10  .50667 1.3366 119.3 22.5 4150 107
2020 05 28 10  13 26 28.202   +21 34 19.96  .50662 1.3365 119.3 22.5 4181 107